Temp
62 62 60 58 46 42 38 45 49 53 56 58 63 60 59 60 60 56 67 70 71 71 73 73 74 75 75 75 75 75 76 76 77 77 77 76 76 76 76 76 76 77 78 77 77 77 76 75 74
60 65 58 49 40 34 37 44 49 55 59 62 60 59 58 59 64 64 65 71 72 72 72 73 72 75 75 75 75 75 75 76 76 76 76 76 76 76 76 76 76 76 77 77 76 76 74 74 73
62 64 53 46 38 34 38 46 51 56 60 57 57 60 60 61 65 65 68 72 72 71 72 72 72 74 74 74 74 75 75 75 76 76 76 77 76 76 75 75 75 75 76 75 74 74 73 72 71
57 55 50 40 37 42 45 48 51 54 59 58 57 54 59 65 66 69 71 72 71 71 71 70 72 74 74 74 74 75 74 75 76 76 76 75 75 74 74 74 74 75 74 74 73 72 71 70 70
55 49 41 36 38 44 49 53 54 54 54 58 57 55 56 65 68 70 69 71 70 69 70 71 71 73 74 74 74 75 75 75 75 74 74 74 74 74 74 74 74 73 72 72 71 70 70 70 70
47 46 36 37 38 44 49 54 54 52 56 58 56 53 56 64 66 67 69 68 69 69 71 70 67 70 71 73 73 74 74 74 74 74 74 74 73 73 72 72 72 71 71 70 70 69 69 69 69
45 40 36 35 39 43 50 55 51 54 54 55 57 53 56 59 64 66 66 67 68 69 70 70 69 68 67 69 70 71 72 72 72 73 72 71 70 70 70 70 70 70 69 69 68 68 68 68 67
47 43 35 37 38 42 51 53 55 53 55 61 59 53 52 61 65 65 65 65 66 66 69 69 69 67 67 67 65 67 68 69 69 67 66 65 65 66 66 66 68 68 68 68 67 66 66 66 64
50 38 34 38 41 46 51 50 55 56 53 57 61 56 58 61 62 62 63 65 65 66 66 68 67 66 65 65 63 64 64 64 64 63 61 61 58 59 59 63 65 66 67 66 65 64 62 60 60
44 36 39 47 51 49 51 48 49 52 52 54 55 59 62 60 59 60 60 61 64 65 66 67 66 66 65 66 65 63 63 63 63 62 61 57 56 56 57 58 61 62 63 64 63 61 58 54 49
44 39 45 49 55 54 52 50 51 48 48 52 51 57 60 58 58 58 60 60 63 65 64 64 64 64 64 63 63 62 61 61 61 60 56 55 54 53 51 50 49 49 52 49 50 48 48 48 48
39 47 48 51 53 50 49 55 49 51 52 58 57 59 58 59 58 58 58 58 62 63 63 64 64 64 64 63 63 61 60 60 59 57 56 53 51 50 50 49 48 48 47 46 45 45 47 47 48
41 44 48 50 51 49 51 49 50 50 54 60 60 58 57 58 58 58 59 59 62 63 63 64 64 64 63 62 62 62 61 59 59 58 55 54 53 52 52 49 48 47 46 46 45 45 45 46 47
43 45 46 48 50 50 48 48 46 52 55 57 55 53 53 55 58 56 58 58 58 62 63 63 63 64 63 62 61 60 58 59 59 56 54 56 53 52 51 49 48 46 46 45 45 45 44 44 45
44 40 43 46 47 47 47 43 43 52 51 50 51 51 51 51 55 56 58 58 59 60 63 63 63 63 62 62 61 59 58 58 57 56 57 56 55 54 52 50 47 46 46 45 45 45 44 44 45
37 36 31 43 47 50 45 36 50 50 51 51 49 48 50 52 53 54 57 57 58 59 63 64 64 62 61 61 60 59 57 57 56 56 56 56 55 54 52 49 48 47 47 45 44 43 42 42 42
32 27 30 38 45 44 42 37 50 53 49 49 50 50 50 49 48 49 51 52 55 58 60 62 62 61 60 60 58 58 57 55 55 54 54 53 52 53 51 49 46 45 45 44 45 41 42 40 41
29 28 31 32 40 42 36 38 46 50 49 46 48 43 41 43 44 47 47 49 50 55 59 62 61 61 59 58 56 56 55 54 54 52 51 53 53 52 50 47 45 45 44 42 42 41 40 40 40
32 30 29 33 40 36 34 36 42 41 40 41 42 41 43 43 45 47 47 46 48 54 57 61 60 60 58 55 53 52 53 53 52 51 51 52 51 51 48 46 45 44 43 42 42 40 40 39 39
32 30 29 34 37 35 36 35 38 41 39 40 40 40 41 42 44 45 46 45 45 47 51 57 58 57 58 56 54 54 52 52 52 52 51 50 50 49 48 46 44 43 41 41 40 40 38 38 38
33 31 30 32 34 33 32 30 33 38 40 41 41 42 42 41 41 42 43 44 44 43 44 50 56 56 56 53 52 50 50 50 48 48 47 48 49 48 48 47 45 42 41 40 39 39 39 37 37
30 35 34 33 29 21 31 16 28 33 34 36 37 37 39 40 42 42 42 42 42 43 45 46 53 55 54 53 50 49 48 48 49 48 46 46 47 47 47 46 45 43 41 39 39 40 39 39 37
33 36 34 33 27 23 24 18 24 32 29 31 33 36 37 38 40 40 40 42 42 43 43 45 48 54 53 53 51 49 49 48 48 47 46 44 45 46 46 45 44 42 40 39 39 38 38 38 37
38 34 31 28 25 6 23 23 24 27 30 30 32 33 35 37 37 39 41 42 41 42 42 43 44 49 52 52 51 49 47 44 45 45 44 43 43 43 44 44 41 41 40 39 38 38 38 37 37
34 27 6 6 4 8 25 22 22 28 32 32 30 31 32 33 35 36 37 37 38 39 39 42 41 42 46 50 51 50 49 45 45 45 45 42 42 41 42 41 39 39 39 39 38 37 37 37 36
30 26 11 1 5 13 26 18 25 32 33 34 33 32 33 33 34 34 35 36 36 37 38 39 39 40 41 42 45 49 49 47 46 46 46 46 45 44 42 40 39 39 39 38 38 37 36 36 35
28 22 30 9 6 10 20 24 30 31 30 31 30 30 30 32 33 33 34 34 35 36 36 36 37 38 39 39 41 43 47 47 47 46 45 46 46 43 41 40 39 39 38 38 37 36 35 35 35
31 33 19 13 2 7 13 19 22 25 26 28 27 27 29 31 32 33 33 33 33 34 35 36 37 36 38 39 39 40 41 44 46 45 43 43 42 43 41 40 40 38 38 37 36 35 35 35 34
24 20 21 23 18 6 3 16 28 30 28 27 28 29 28 30 31 32 32 33 32 32 33 33 35 35 36 37 38 37 39 40 41 42 42 42 41 42 41 40 39 38 37 37 35 35 35 35 34
28 26 24 11 12 15 13 19 30 29 28 29 29 31 30 31 31 31 32 32 31 31 31 31 33 33 35 36 36 36 37 38 38 39 40 40 39 40 41 40 39 38 37 36 36 35 35 34 34
MSLP
1015.99 1015.92 1015.98 1016.41 1017.91 1018.30 1017.87 1016.43 1015.18 1014.15 1013.25 1011.98 1011.61 1011.30 1011.07 1011.02 1011.39 1011.81 1011.31 1011.31 1011.34 1011.55 1011.84 1012.15 1012.36 1012.82 1013.08 1013.17 1013.26 1013.28 1013.58 1013.87 1014.04 1014.30 1014.57 1014.78 1014.93 1015.08 1015.22 1015.40 1015.54 1015.61 1015.82 1016.07 1016.32 1016.44 1016.61 1016.77 1016.89
1016.05 1016.02 1016.59 1017.55 1018.38 1018.64 1017.66 1016.06 1015.08 1013.90 1013.01 1012.04 1011.65 1011.35 1011.23 1011.08 1011.04 1011.38 1011.50 1011.47 1011.42 1011.65 1012.09 1012.29 1012.40 1012.75 1013.27 1013.46 1013.64 1013.57 1013.70 1014.03 1014.35 1014.53 1014.76 1014.97 1015.23 1015.32 1015.51 1015.69 1015.84 1015.93 1016.06 1016.27 1016.52 1016.73 1016.95 1017.10 1017.27
1015.97 1016.34 1017.45 1018.19 1018.40 1018.10 1017.19 1015.61 1014.64 1013.86 1012.90 1012.40 1011.60 1011.15 1011.14 1010.89 1010.80 1010.98 1011.02 1011.30 1011.63 1011.95 1012.21 1012.53 1012.53 1012.91 1013.26 1013.68 1013.85 1013.97 1014.03 1014.21 1014.46 1014.74 1014.99 1015.18 1015.43 1015.60 1015.80 1016.01 1016.14 1016.30 1016.52 1016.76 1016.97 1017.23 1017.46 1017.64 1017.80
1016.44 1017.02 1018.21 1018.35 1018.20 1017.53 1016.46 1015.20 1014.44 1014.05 1012.79 1011.92 1011.49 1011.37 1011.09 1010.85 1010.66 1010.71 1011.07 1011.48 1011.81 1012.10 1012.23 1012.72 1012.86 1013.09 1013.42 1013.74 1014.04 1014.15 1014.33 1014.55 1014.71 1014.90 1015.18 1015.52 1015.85 1016.07 1016.25 1016.42 1016.67 1016.91 1017.15 1017.33 1017.48 1017.70 1017.97 1018.14 1018.18
1016.84 1017.82 1018.41 1018.49 1017.89 1017.32 1016.20 1015.49 1014.81 1014.24 1013.64 1012.50 1011.77 1011.46 1011.26 1010.92 1010.76 1010.97 1011.44 1011.90 1012.10 1012.40 1012.58 1012.93 1013.29 1013.35 1013.55 1013.78 1014.14 1014.36 1014.54 1014.70 1015.05 1015.32 1015.63 1015.89 1016.20 1016.40 1016.64 1016.90 1017.16 1017.43 1017.56 1017.76 1017.95 1018.10 1018.29 1018.42 1018.51
1017.58 1018.14 1018.84 1018.51 1017.74 1016.82 1016.05 1015.23 1014.76 1014.06 1013.11 1012.43 1012.26 1011.78 1011.54 1011.24 1011.19 1011.49 1011.62 1011.97 1012.40 1012.63 1012.87 1013.12 1013.53 1013.73 1013.70 1014.08 1014.33 1014.52 1014.83 1015.04 1015.31 1015.62 1016.01 1016.27 1016.53 1016.78 1017.08 1017.29 1017.56 1017.77 1018.05 1018.25 1018.36 1018.51 1018.63 1018.73 1018.87
1017.88 1018.58 1018.55 1018.20 1017.48 1016.68 1015.60 1014.79 1014.60 1013.71 1013.05 1012.37 1011.91 1011.88 1011.72 1011.61 1011.60 1011.80 1012.02 1012.15 1012.30 1012.54 1012.81 1013.26 1013.68 1014.00 1013.93 1014.26 1014.58 1014.85 1015.19 1015.46 1015.70 1015.88 1016.24 1016.74 1016.97 1017.17 1017.52 1017.73 1017.97 1018.21 1018.41 1018.59 1018.76 1018.85 1018.95 1019.06 1019.30
1017.87 1018.61 1018.66 1018.03 1017.44 1016.42 1015.37 1014.80 1014.35 1013.92 1012.95 1011.98 1011.64 1011.96 1011.93 1011.43 1011.60 1012.08 1012.18 1012.50 1012.57 1012.90 1012.96 1013.22 1013.63 1014.10 1014.49 1014.50 1014.79 1015.09 1015.51 1015.80 1016.07 1016.24 1016.74 1017.17 1017.53 1017.78 1017.97 1018.24 1018.37 1018.59 1018.87 1018.96 1019.06 1019.20 1019.39 1019.48 1019.66
1017.74 1018.56 1018.78 1018.02 1017.22 1016.23 1015.57 1015.18 1014.39 1013.84 1013.56 1012.74 1012.09 1012.20 1012.30 1011.98 1012.08 1012.43 1012.81 1013.12 1012.92 1012.97 1013.19 1013.28 1013.84 1014.20 1014.66 1014.90 1015.14 1015.39 1015.73 1016.06 1016.37 1016.68 1017.10 1017.59 1018.09 1018.35 1018.56 1018.65 1018.83 1018.94 1019.10 1019.35 1019.56 1019.65 1019.90 1020.08 1020.21
1017.82 1018.64 1018.26 1017.38 1016.69 1016.20 1015.86 1015.52 1015.25 1014.62 1014.01 1013.23 1012.81 1012.44 1012.52 1012.59 1012.64 1012.73 1012.79 1013.02 1013.18 1013.43 1013.41 1013.58 1013.80 1014.26 1014.70 1015.07 1015.33 1015.75 1016.08 1016.27 1016.45 1016.97 1017.50 1018.07 1018.39 1018.68 1018.85 1019.14 1019.24 1019.48 1019.50 1019.74 1020.08 1020.09 1020.31 1020.58 1020.68
1017.72 1017.88 1017.68 1016.97 1016.53 1016.01 1015.87 1015.49 1015.14 1015.02 1014.62 1013.95 1013.69 1013.49 1013.17 1013.27 1013.32 1013.25 1012.97 1012.73 1012.77 1013.02 1013.66 1013.60 1014.12 1014.70 1014.96 1015.31 1015.63 1016.02 1016.31 1016.54 1016.82 1017.32 1017.91 1018.37 1018.69 1018.98 1019.18 1019.55 1019.82 1019.98 1020.18 1020.42 1020.54 1020.70 1020.79 1021.04 1021.08
1017.67 1017.41 1017.47 1016.96 1016.73 1016.52 1016.07 1015.58 1015.32 1015.05 1014.67 1014.07 1014.00 1013.86 1013.72 1013.53 1013.67 1013.58 1013.29 1013.42 1013.22 1013.47 1013.56 1013.40 1013.45 1014.26 1014.83 1015.54 1015.76 1016.10 1016.44 1016.78 1017.04 1017.63 1018.21 1018.56 1018.99 1019.30 1019.49 1019.58 1019.98 1020.24 1020.53 1020.78 1020.90 1021.16 1021.14 1021.37 1021.46
1017.87 1017.82 1017.35 1016.92 1016.57 1016.29 1015.92 1015.52 1015.45 1014.66 1014.44 1014.01 1013.84 1014.00 1014.05 1013.89 1013.64 1013.46 1013.61 1013.55 1013.41 1013.53 1013.45 1013.48 1013.80 1014.01 1014.46 1014.82 1015.60 1016.11 1016.38 1016.72 1016.91 1017.56 1018.22 1018.46 1018.98 1019.30 1019.69 1019.90 1020.04 1020.44 1020.67 1020.94 1021.28 1021.43 1021.52 1021.61 1021.77
1018.28 1017.96 1017.39 1016.72 1016.20 1015.98 1015.85 1015.20 1015.53 1014.26 1014.06 1014.09 1013.96 1014.52 1014.43 1014.37 1013.81 1013.45 1013.48 1013.39 1013.35 1013.34 1013.34 1013.58 1013.65 1013.86 1014.18 1014.70 1014.69 1015.76 1016.32 1016.54 1016.75 1017.33 1018.10 1018.62 1018.90 1019.28 1019.90 1020.17 1020.23 1020.65 1020.74 1021.17 1021.56 1021.72 1021.92 1021.99 1022.18
1018.42 1018.35 1017.45 1016.38 1015.95 1015.80 1015.57 1015.59 1015.46 1014.81 1014.55 1014.65 1014.73 1014.69 1014.55 1014.42 1013.97 1013.61 1013.17 1013.13 1012.85 1012.77 1012.80 1013.21 1013.59 1013.91 1014.15 1014.19 1014.18 1014.81 1016.12 1016.58 1016.84 1017.18 1017.89 1018.67 1018.84 1019.26 1019.90 1020.41 1020.30 1020.84 1020.86 1021.25 1021.73 1022.14 1022.21 1022.26 1022.55
1018.88 1018.94 1018.21 1016.71 1016.24 1015.99 1015.95 1015.77 1015.27 1015.03 1014.90 1014.85 1014.93 1014.99 1014.65 1014.21 1014.11 1013.74 1013.30 1012.95 1012.62 1012.60 1012.69 1013.22 1013.50 1013.97 1014.32 1014.64 1014.78 1015.20 1015.86 1016.57 1016.97 1017.13 1017.82 1018.25 1018.82 1019.12 1019.76 1020.45 1020.44 1021.00 1020.82 1021.35 1021.91 1022.36 1022.67 1022.92 1023.03
1019.78 1019.67 1018.86 1017.70 1016.84 1016.70 1016.72 1016.41 1015.43 1015.27 1015.26 1015.30 1015.22 1015.21 1015.17 1014.76 1014.89 1014.90 1014.33 1013.52 1013.01 1012.69 1012.51 1012.85 1013.47 1013.82 1014.41 1014.86 1015.27 1015.22 1015.92 1016.44 1017.01 1017.36 1017.74 1018.27 1018.70 1019.47 1019.98 1020.47 1020.62 1021.14 1021.11 1021.55 1021.93 1022.63 1022.74 1023.35 1023.40
1020.04 1019.88 1019.30 1018.73 1017.72 1017.18 1017.48 1016.87 1016.28 1016.04 1015.83 1015.88 1016.00 1016.38 1016.28 1016.20 1016.04 1015.61 1015.03 1014.25 1013.25 1012.58 1012.29 1012.57 1013.04 1013.53 1014.18 1014.86 1015.40 1015.77 1016.36 1016.63 1017.09 1017.62 1017.75 1018.41 1018.85 1019.66 1020.09 1020.51 1020.75 1020.89 1021.39 1022.01 1022.34 1022.66 1023.11 1023.51 1023.64
1020.04 1019.99 1019.78 1019.03 1018.48 1018.34 1018.11 1017.76 1017.63 1017.52 1016.92 1017.25 1017.50 1017.46 1017.45 1017.30 1017.06 1016.39 1015.71 1015.02 1014.16 1013.36 1012.99 1012.69 1012.76 1013.16 1013.80 1014.46 1015.31 1015.94 1016.13 1016.88 1017.28 1017.79 1017.96 1018.92 1018.79 1019.41 1020.18 1020.51 1020.79 1021.13 1021.62 1022.16 1022.52 1022.95 1023.29 1023.75 1023.90
1020.18 1020.09 1019.87 1019.29 1018.97 1018.93 1018.67 1018.89 1018.81 1018.64 1018.68 1018.64 1018.68 1018.42 1018.41 1018.04 1017.51 1017.08 1016.64 1016.05 1015.43 1015.00 1014.25 1013.64 1013.42 1013.79 1013.88 1014.23 1014.96 1015.55 1016.22 1016.97 1017.34 1017.94 1018.56 1019.01 1019.00 1019.32 1020.07 1020.52 1020.92 1021.21 1021.69 1022.22 1022.61 1022.80 1023.45 1023.76 1023.84
1019.99 1020.03 1019.85 1019.94 1019.82 1019.67 1019.52 1019.51 1019.43 1019.67 1019.72 1019.62 1019.52 1019.40 1019.13 1018.90 1018.61 1018.16 1017.52 1017.11 1016.45 1015.95 1015.44 1014.62 1013.85 1013.86 1014.23 1014.76 1015.10 1015.91 1016.53 1017.19 1017.50 1018.02 1018.68 1018.93 1019.53 1019.70 1020.19 1020.61 1020.95 1021.20 1021.65 1022.10 1022.52 1022.74 1022.92 1023.52 1023.93
1019.71 1019.30 1019.79 1020.27 1020.74 1021.11 1020.78 1020.84 1020.41 1020.58 1020.82 1020.78 1020.71 1020.44 1020.16 1019.81 1019.48 1019.08 1018.51 1017.95 1017.47 1016.97 1016.27 1015.30 1014.27 1014.11 1014.32 1014.76 1015.26 1015.56 1015.85 1016.60 1016.86 1017.50 1018.35 1019.02 1019.71 1019.88 1020.53 1020.77 1021.01 1021.21 1021.76 1022.07 1022.32 1022.61 1022.81 1022.96 1023.62
1019.22 1019.42 1020.28 1020.94 1021.70 1022.24 1022.11 1022.39 1020.61 1020.99 1021.67 1021.89 1021.80 1021.55 1021.28 1020.87 1020.34 1019.73 1019.33 1018.91 1018.43 1017.68 1017.09 1016.26 1015.11 1014.50 1014.65 1015.01 1015.34 1015.75 1016.40 1016.53 1016.88 1017.67 1018.43 1019.28 1019.74 1020.00 1020.30 1020.86 1021.12 1021.47 1021.81 1022.03 1022.20 1022.61 1022.73 1022.77 1023.20
1019.32 1020.13 1021.35 1022.47 1023.21 1023.59 1022.40 1022.23 1021.09 1021.27 1021.48 1022.29 1022.53 1022.31 1022.00 1021.44 1020.91 1020.40 1020.13 1019.65 1019.18 1018.56 1017.77 1017.17 1016.55 1015.94 1015.55 1015.53 1015.62 1015.90 1016.40 1016.86 1017.23 1017.70 1018.37 1019.12 1019.39 1020.21 1020.37 1020.68 1021.21 1021.39 1021.77 1022.04 1022.26 1022.51 1022.63 1022.87 1022.98
1019.92 1021.37 1023.53 1024.66 1025.37 1024.35 1022.96 1022.95 1021.52 1021.51 1021.67 1022.34 1022.76 1022.75 1022.45 1022.03 1021.56 1021.07 1020.53 1020.12 1019.91 1019.55 1019.10 1018.37 1017.81 1017.20 1016.85 1016.28 1016.17 1016.14 1016.38 1016.86 1017.20 1017.53 1017.91 1018.75 1019.55 1019.85 1020.09 1020.60 1021.11 1021.46 1021.74 1021.90 1022.18 1022.51 1022.68 1022.88 1023.05
1020.09 1021.66 1023.86 1024.86 1025.83 1025.02 1023.65 1022.61 1021.31 1021.74 1022.11 1022.58 1022.89 1022.98 1022.79 1022.40 1022.04 1021.78 1021.49 1021.10 1020.71 1020.44 1020.20 1019.61 1018.84 1018.38 1018.01 1017.58 1017.04 1016.56 1016.48 1016.69 1016.94 1017.29 1017.67 1018.03 1018.29 1018.95 1019.39 1020.14 1020.87 1021.27 1021.56 1021.77 1022.17 1022.53 1022.79 1022.91 1023.08
1020.63 1021.57 1022.42 1024.58 1026.79 1025.71 1023.59 1022.79 1022.40 1022.20 1022.52 1022.94 1023.27 1023.27 1023.08 1022.84 1022.45 1022.14 1021.86 1021.66 1021.27 1020.93 1020.84 1020.54 1019.99 1019.35 1018.84 1018.62 1017.95 1017.23 1016.91 1016.84 1016.75 1016.86 1017.28 1017.65 1017.96 1018.38 1019.05 1019.70 1020.46 1021.04 1021.21 1021.63 1022.14 1022.51 1022.82 1023.04 1023.14
1020.73 1021.57 1023.05 1024.86 1026.42 1026.17 1023.80 1022.51 1021.29 1021.92 1022.57 1023.10 1023.40 1023.36 1023.22 1023.05 1022.83 1022.56 1022.26 1021.89 1021.71 1021.37 1021.38 1020.93 1020.53 1020.31 1019.85 1019.28 1018.78 1018.14 1017.44 1016.95 1016.84 1016.91 1017.05 1017.33 1017.69 1018.09 1018.61 1019.21 1019.88 1020.48 1021.00 1021.47 1022.08 1022.51 1022.88 1023.12 1023.26
1021.93 1022.39 1023.60 1024.49 1025.24 1025.51 1024.59 1021.75 1019.84 1020.59 1022.20 1023.03 1023.29 1023.25 1023.08 1023.00 1022.92 1022.67 1022.42 1022.16 1021.90 1021.50 1021.56 1021.10 1020.94 1020.67 1020.15 1019.70 1019.28 1018.66 1017.99 1017.35 1017.05 1016.97 1016.93 1017.06 1017.42 1017.83 1018.24 1018.71 1019.32 1019.99 1020.72 1021.15 1021.91 1022.39 1022.68 1023.05 1023.26
1023.10 1023.46 1024.23 1025.39 1025.98 1025.85 1025.05 1022.13 1020.93 1021.35 1022.24 1022.81 1023.08 1023.17 1023.10 1022.95 1022.93 1022.78 1022.51 1022.37 1022.10 1022.05 1021.44 1021.33 1021.27 1021.14 1020.77 1020.25 1019.72 1019.05 1018.45 1017.81 1017.36 1017.12 1016.91 1016.98 1017.27 1017.55 1017.96 1018.42 1019.02 1019.56 1020.23 1020.81 1021.61 1022.14 1022.40 1022.90 1023.22
Wind_Speed
4 3 2 5 4 4 3 7 3 8 7 1 4 1 4 4 3 3 4 6 8 12 10 10 13 13 12 12 12 13 13 14 15 15 15 14 14 13 13 12 11 12 12 12 11 11 12 11 11
3 1 5 2 4 3 6 5 7 8 6 9 3 3 0 4 2 2 3 5 10 11 9 9 11 13 12 11 11 13 15 15 15 16 16 15 15 14 14 13 12 11 13 13 13 12 12 12 11
1 3 4 3 4 6 6 5 9 4 9 4 3 3 4 3 2 6 3 11 9 8 7 7 12 13 13 12 12 13 14 15 16 16 15 14 14 16 15 12 12 13 14 14 13 12 12 11 11
2 3 4 3 7 6 6 2 1 8 8 2 2 2 0 1 3 5 11 12 12 9 7 8 12 14 13 13 12 12 13 15 14 14 15 15 14 14 14 14 13 12 12 10 10 10 11 11 12
3 3 2 3 5 5 6 4 5 7 5 8 1 3 2 3 1 11 10 9 12 8 7 8 9 13 14 12 13 14 15 15 14 15 15 15 15 14 13 12 12 11 11 11 11 11 11 12 12
4 3 2 8 5 3 7 5 3 4 7 9 4 2 3 3 6 6 9 9 7 9 9 8 7 8 12 12 11 13 13 14 15 15 14 14 14 13 13 12 12 11 11 11 10 10 11 12 13
5 4 4 3 4 4 8 2 4 8 8 10 3 3 2 2 3 5 7 6 7 7 9 7 7 6 9 10 9 10 11 13 14 14 13 12 11 12 12 12 12 12 11 11 10 11 10 12 13
5 4 2 4 3 5 2 6 4 3 7 4 2 3 3 5 7 6 6 6 5 4 7 10 8 6 5 6 9 10 10 11 12 15 14 13 13 12 11 10 11 12 11 11 11 12 13 13 13
3 3 2 3 3 5 4 6 6 4 3 6 3 1 5 2 6 6 5 5 4 3 4 8 7 5 5 5 6 10 12 12 13 13 14 10 5 6 7 10 11 12 11 11 11 12 12 12 12
4 3 6 5 3 5 5 2 4 7 9 6 3 7 7 3 4 6 7 8 6 6 5 5 9 7 6 5 6 6 6 4 6 6 7 5 5 5 6 7 10 11 11 12 11 12 12 8 4
4 6 4 5 8 5 3 6 2 3 6 5 1 7 10 3 5 5 6 6 11 10 7 8 6 6 5 5 4 3 2 3 4 7 5 5 4 4 4 3 3 4 7 4 6 5 4 6 4
2 4 3 3 6 6 6 5 4 7 9 9 7 4 6 7 6 7 7 3 6 9 10 12 14 11 9 5 5 5 4 3 4 5 5 5 3 4 3 3 4 4 3 5 4 3 5 6 6
3 3 6 7 8 5 5 8 7 11 9 10 5 4 8 8 9 6 5 5 5 9 8 9 10 10 10 11 5 5 6 5 6 6 5 5 4 4 3 3 4 4 4 4 4 4 4 5 5
3 5 7 7 9 6 6 9 3 11 4 8 6 6 7 9 10 5 5 7 7 9 10 8 10 9 9 10 11 6 4 5 7 6 5 4 4 4 3 3 4 4 4 4 4 4 4 4 4
4 6 7 5 4 5 4 6 6 9 5 6 6 7 8 6 9 10 8 7 8 8 8 11 10 8 9 10 10 9 6 5 5 6 7 7 5 5 5 3 4 3 4 6 5 4 4 5 3
4 3 5 6 5 4 4 7 6 6 6 9 7 9 8 8 6 9 8 8 7 6 10 10 9 9 9 7 6 5 6 4 4 6 5 6 5 6 5 3 4 3 4 4 4 3 4 4 4
4 3 4 7 4 3 5 8 7 10 6 8 8 8 8 10 10 8 11 8 7 7 8 11 10 9 8 5 5 6 6 4 4 3 4 5 4 5 5 4 4 4 4 4 3 3 3 2 3
4 3 4 5 5 6 4 8 6 7 8 10 10 10 10 11 12 12 12 11 10 9 9 9 10 10 9 6 4 4 4 4 4 3 3 5 5 6 5 4 5 4 4 4 3 3 4 2 2
0 3 6 5 7 3 3 8 10 10 12 12 11 11 13 12 9 11 13 13 15 12 4 12 13 11 9 6 5 3 6 3 4 4 6 6 7 6 5 3 4 4 5 4 5 3 4 3 1
3 3 6 6 1 2 6 4 6 9 9 9 10 13 12 13 16 16 16 15 14 13 12 7 7 6 7 5 3 3 4 3 3 3 3 3 3 6 5 5 4 5 4 5 4 3 3 2 2
4 5 4 5 4 1 5 2 2 3 7 11 12 9 12 13 14 15 16 16 15 16 14 12 5 5 4 5 6 5 5 3 3 3 3 3 4 4 5 5 4 5 4 4 4 4 5 4 1
3 5 4 2 3 2 3 5 3 3 8 11 11 11 12 13 13 13 15 16 17 15 13 13 8 5 5 8 5 7 5 5 3 4 4 3 3 3 3 4 4 5 3 5 4 3 3 4 4
7 1 1 1 3 2 2 4 4 7 5 6 8 9 9 10 11 13 14 14 15 15 15 14 14 2 5 6 5 5 2 3 5 5 8 5 4 5 5 4 5 4 3 4 5 5 4 3 3
3 2 5 4 3 3 7 6 3 4 7 4 3 6 8 9 10 11 11 12 14 15 16 15 16 14 6 2 4 6 6 6 6 6 7 6 3 2 4 5 4 4 4 5 4 4 5 4 3
4 5 4 6 5 7 0 3 3 1 6 7 4 5 7 7 7 10 14 14 14 16 16 15 16 15 14 7 2 4 5 6 7 8 7 8 5 4 7 5 5 4 4 5 4 4 4 4 3
6 8 8 8 5 4 1 6 4 5 5 7 4 2 5 8 8 9 10 11 12 13 13 14 16 15 14 13 10 4 5 5 5 6 6 8 9 6 7 6 6 6 5 5 4 3 3 4 4
4 4 4 7 2 4 4 3 3 4 3 5 3 4 5 6 7 8 8 8 10 13 12 12 13 14 14 13 11 9 4 5 7 8 6 5 6 7 9 9 8 6 6 6 5 4 4 4 3
2 3 2 3 2 6 4 5 6 15 9 6 3 1 4 4 6 6 6 7 6 7 9 11 11 11 11 12 11 9 8 6 5 5 7 7 6 8 10 10 9 7 6 6 6 4 4 5 3
4 3 2 2 5 6 1 7 4 17 11 8 7 5 3 4 4 5 5 6 6 4 6 8 11 12 12 11 12 11 10 7 5 5 6 7 6 9 9 10 10 9 8 7 6 5 6 6 5
1 1 2 4 6 2 2 10 5 13 10 7 6 5 5 4 3 5 4 5 6 6 5 7 8 9 10 9 10 11 10 9 6 6 6 5 7 7 8 9 10 9 9 9 8 8 7 7 6
Wind_Direction
8 343 56 33 59 65 243 249 264 285 323 316 336 258 189 156 224 243 321 179 142 147 155 156 155 158 150 140 135 128 126 126 129 127 123 120 115 112 110 105 103 107 112 105 97 97 91 84 76
355 60 40 79 117 175 246 241 246 243 249 313 315 292 47 204 178 149 116 167 148 142 149 152 150 151 142 141 137 134 130 129 130 128 125 120 117 113 107 101 99 104 104 97 91 85 81 73 65
337 50 98 150 185 197 222 212 244 278 303 256 226 189 172 217 261 174 175 143 139 138 142 156 148 143 142 147 143 138 135 134 131 127 127 122 119 109 104 95 84 80 80 80 80 76 69 64 61
106 33 26 144 236 263 226 229 180 309 320 254 266 232 260 212 195 172 145 144 144 144 137 150 144 147 149 147 144 137 138 134 131 122 121 115 111 107 103 98 96 95 93 92 91 82 73 63 54
50 57 188 244 249 267 272 276 278 293 295 277 303 262 243 302 50 137 136 143 154 142 139 151 151 155 150 146 153 150 139 130 125 119 117 121 122 117 107 103 108 104 103 98 92 86 73 62 53
62 99 115 240 241 250 286 214 254 237 261 270 280 174 235 316 137 156 137 138 147 149 156 149 147 150 140 146 148 136 134 131 128 125 127 131 128 126 120 119 115 105 100 90 83 76 72 65 56
115 96 219 237 283 276 244 283 238 261 263 258 218 179 285 207 246 142 131 130 145 163 156 140 142 164 150 144 140 135 138 133 134 135 123 119 114 114 115 116 113 104 96 87 79 72 72 67 58
106 96 270 247 225 273 328 335 318 359 291 284 129 216 240 239 152 109 117 134 149 158 162 147 147 153 143 141 127 125 123 118 110 104 101 95 91 92 94 92 104 99 90 86 78 72 66 67 60
131 62 251 249 197 258 6 11 317 287 310 323 5 48 313 47 109 110 123 147 171 125 149 142 138 129 137 120 128 116 116 115 111 103 103 93 96 96 89 98 100 100 91 82 77 74 67 64 57
114 130 228 224 240 285 317 6 318 345 343 324 359 357 13 32 156 176 161 175 196 169 133 147 143 136 138 126 128 117 127 129 112 110 113 110 112 113 105 90 88 81 77 83 73 70 64 61 57
159 208 219 256 274 276 277 304 198 301 295 240 13 332 339 321 277 229 213 185 197 179 161 120 116 129 134 139 126 128 117 119 112 118 129 122 117 107 107 99 80 81 72 60 60 52 52 52 54
216 228 229 312 351 327 300 299 280 206 236 256 254 267 294 314 280 263 251 250 168 186 181 156 161 170 162 154 160 151 143 141 131 131 140 135 129 126 131 122 112 96 83 81 69 59 67 59 54
201 321 320 296 280 252 269 264 261 258 260 267 302 277 258 284 282 258 236 252 192 202 195 182 177 182 164 164 163 171 170 167 154 145 157 147 157 148 132 126 114 107 100 90 77 72 62 60 52
317 280 277 276 259 250 229 271 136 258 269 284 301 265 262 258 258 284 237 226 206 208 201 185 189 187 175 187 156 174 172 172 159 153 158 176 141 137 142 137 122 114 110 97 93 85 80 64 57
317 314 315 247 271 253 151 307 236 304 321 279 278 292 306 273 276 258 241 240 207 214 191 197 193 183 190 193 178 161 164 169 163 152 155 183 151 145 136 170 111 131 113 103 89 71 66 65 46
13 13 338 296 360 11 141 277 323 358 340 318 315 308 305 294 265 282 274 240 240 195 196 205 196 188 192 193 179 166 151 160 168 148 146 146 150 146 129 169 129 141 109 109 97 95 69 65 60
8 250 260 313 72 33 60 286 297 323 337 304 316 316 334 333 30 1 345 327 284 243 200 190 197 191 179 178 180 155 150 147 135 130 136 137 135 149 159 171 128 149 110 104 116 71 99 75 58
195 229 274 262 296 349 339 271 297 319 308 334 7 30 21 11 357 345 347 348 330 255 208 196 197 193 163 146 139 124 144 149 144 151 121 151 144 164 150 143 142 124 109 112 101 110 62 99 107
230 215 250 260 284 303 295 298 358 10 48 54 41 37 28 18 347 10 6 4 9 10 252 217 203 195 164 149 149 158 167 170 149 166 175 186 158 139 153 138 132 133 134 147 135 109 109 64 189
226 250 269 290 255 350 312 348 29 36 48 52 45 36 24 17 15 12 11 13 17 7 4 325 228 199 190 172 139 134 131 117 127 132 136 133 127 137 150 156 158 149 133 138 152 142 123 108 192
234 217 227 222 338 1 321 347 68 61 40 41 37 38 34 27 18 12 12 11 9 10 353 337 289 177 161 131 112 90 80 76 107 151 125 117 155 142 158 160 164 149 147 157 168 170 156 147 197
274 214 221 230 72 193 37 273 173 111 48 36 28 23 22 20 21 21 17 14 10 2 355 352 319 164 152 151 148 175 174 159 174 134 123 122 125 143 164 165 167 156 161 165 169 175 178 140 165
224 144 44 23 108 76 303 91 245 148 55 27 13 14 9 11 15 17 16 14 8 7 3 0 359 135 142 180 176 161 180 115 120 121 146 143 160 165 150 197 172 173 176 177 170 170 181 179 156
84 98 55 51 92 20 223 165 233 206 163 145 7 2 1 1 8 18 16 16 15 10 11 9 9 22 7 180 187 182 167 146 144 145 163 170 153 187 192 177 186 178 181 175 175 183 178 189 168
92 65 328 354 13 219 245 177 249 105 113 137 113 10 348 346 3 14 15 14 12 12 9 9 10 9 3 338 254 194 188 173 178 176 172 163 175 201 188 178 180 184 189 173 160 170 172 177 177
172 158 164 208 188 245 166 229 242 150 107 122 102 27 357 4 1 13 11 10 8 10 10 6 7 6 1 357 335 263 194 187 183 184 186 188 195 192 161 176 179 185 179 161 157 152 167 164 158
201 188 168 104 26 63 226 96 335 157 129 138 109 33 10 2 358 1 359 8 6 6 3 5 4 2 3 354 348 334 269 206 201 195 181 190 179 169 176 172 174 181 165 161 160 160 164 157 149
163 154 86 3 138 235 269 236 241 184 183 160 196 34 352 343 354 352 356 359 356 3 351 1 9 3 352 353 349 339 309 262 240 189 191 186 170 169 174 172 175 167 165 160 157 157 158 150 149
4 341 10 175 150 180 230 255 254 177 156 164 207 216 256 304 327 334 344 346 345 354 348 0 1 356 355 351 344 340 335 304 261 221 208 192 166 180 181 179 172 170 170 160 158 165 159 160 161
227 277 144 153 252 253 163 265 72 128 144 164 202 226 263 276 299 314 316 334 352 344 357 0 350 348 345 340 337 338 334 334 297 253 228 183 191 182 182 175 175 172 171 163 169 171 168 167 168